Retour au catalogue

DIAMANT R/B

ActifLEO
NORAD 2682·ROCKET BODY·🇫🇷 France

Lancé Feb 15, 1967 depuis Hammaguir Space Track Range

Loading…

Prochains Passages (prochaines 24 heures)

TLE

FraisSource: Space-Track

Époque: Sep 14, 2026, 21:39 UTC

1 02682U 67014B   26257.90269267  .00000181  00000-0  11265-3 0  9997
2 02682  39.4563 238.9984 0745469  86.1002 282.4543 13.32672596875850

Suivez DIAMANT R/B en temps réel avec AllMySat

Download on the App Store